SCP
-0 -0 0 0 0 -0 -0 0 0 0 0 0 0 0 0 0 -0 0 -0 0 0 0 -0 0 0 0 0 0 0 0 0 0 0 0 0 0 0 0 0 0 0 0 0 0 0 0 0 0 0
0 0 -0 -0 0 0 0 0 0 0 0 0 0 0 0 0 0 0 0 0 0 0 0 0 0 0 0 0 0 0 0 0 0 0 0 0 0 0 0 0 0 0 0 0 0 0 0 0 0
0 -0 0 -0 0 0 0 0 0 0 0 0 0 0 0 0 0 0 0 0 0 0 0 0 0 0 0 0 0 0 0 0 0 0 0 0 0 0 0 0 0 0 0 0 0 0 0 0 0
0 0 0 0 0 0 0 0 0 0 0 0 0 0 0 0 0 0 0 0 0 0 0 0 0 0 0 0 0 0 0 0 0 0 0 0 0 0 0 0 0 0 0 0 0 0 0 0 0
0 0 0 0 0 0 0 0 0 0 0 0 0 0 0 0 0 0 0 0 0 0 0 0 0 0 0 0 0 0 0 0 0 0 0 0 0 0 0 0 0 0 0 0 0 0 0 0 0
0 0 0 0 0 0 0 0 0 0 0 0 0 0 0 0 0 0 0 0 0 0 0 0 0 0 0 0 0 0 0 0 0 0 0 0 0 0 0 0 0 0 0 0 0 0 0 0 0
0 -0 -0 -0 0 0 0 0 0 0 0 0 0 0 0 0 0 0 0 0 0 0 0 0 0 0 0 0 0 0 0 0 0 0 0 0 0 0 0 0 0 0 0 0 0 0 0 0 0
0 -0 -0 -0 -0 0 0 0 0 0 0 0 0 0 0 0 0 0 0 0 0 0 0 0 0 0 0 0 0 0 0 0 0 0 0 0 0 0 0 0 0 0 0 0 0 0 0 0 0
0 -0 -0 0 0 0 0 -0 -0 0 -0 0 0 0 0 0 0 0 0 0 0 0 0 0 0 0 0 0 0 0 0 0 0 0 0 0 0 0 0 0 0 0 0 0 0 0 0 0 0
0 -0 -0 0 0 -0 -0 -0 -0 -0 -0 0 0 0 0 0 0 0 0 0 0 0 0 0 0 0 0 0 0 0 0 0 0 0 0 0 0 0 0 0 0 0 0 0 0 0 0 0 0
-0 0 0 -0 -0 -0 -0 -0 0 0 0 0 0 0 0 0 0 0 0 0 0 0 0 0 0 0 0 0 0 0 0 0 0 0 0 0 0 0 0 0 0 0 0 0 0 0 0 0 0
0 0 0 -0 0 0 -0 -0 -0 -0 0 0 0 0 0 0 0 0 0 0 0 0 0 0 0 0 0 0 0 0 0 0 0 0 0 0 0 0 0 0 0 0 0 0 0 0 0 0 0
0 -0 0 -0 -0 -0 -0 -0 0 0 0 0 0 0 0 0 0 0 0 0 0 0 0 0 0 0 0 0 0 0 0 0 0 0 0 0 0 0 0 0 0 0 0 0 0 0 0 0 0
-0 0 -0 -0 -0 0 -0 -0 -0 0 0 0 0 0 0 0 0 0 0 0 0 0 0 0 0 0 0 0 0 0 0 0 0 0 0 0 0 0 0 0 0 0 0 0 0 0 0 0 0
-0 -0 -0 0 0 0 -0 0 0 0 0 0 0 0 0 0 0 0 0 0 0 0 -0 0 0 0 0 0 0 0 -0 0 0 0 0 0 0 0 0 0 0 0 0 0 0 0 0 0 0
-0 -0 -0 0 0 0 0 0 0 0 0 0 0 0 0 0 0 0 0 0 0 0 0 -0 -0 0 0 0 0 0 -0 -0 0 0 0 0 0 0 0 0 0 0 0 0 0 0 0 0 0
0 0 0 0 0 0 0 0 0 0 0 0 0 0 0 0 0 0 0 0 0 0 0 -0 -0 -0 -0 -0 0 0 0 -0 -0 0 0 0 0 0 0 0 0 0 0 0 0 0 0 0 0
0 0 0 0 0 0 0 0 0 0 0 0 0 0 0 0 0 0 0 0 0 0 0 0 0 0 -0 -0 -0 0 0 -0 -0 -0 0 0 0 0 1 0 0 0 0 0 0 0 0 0 0
0 0 0 0 0 0 0 0 0 0 0 0 0 0 0 0 0 0 0 0 0 0 0 0 0 0 0 0 -0 -0 0 -0 -0 -0 -0 0 0 0 0 1 1 0 0 0 0 0 0 0 0
0 0 0 0 0 0 0 0 0 0 0 0 0 0 0 0 0 0 0 0 0 0 0 0 0 0 0 0 0 0 0 -0 -0 -0 -0 -0 0 0 0 0 0 0 0 0 0 0 0 0 0
0 0 0 0 0 0 0 0 0 0 0 0 0 0 0 0 0 0 0 0 0 0 0 0 0 0 0 0 0 0 0 0 -0 -0 -0 -0 -0 -0 0 0 0 0 0 0 0 0 0 0 0
0 0 0 0 0 0 0 0 0 0 0 0 0 0 0 0 0 0 0 0 0 0 0 0 0 0 0 0 0 0 0 0 0 -0 -0 -0 -0 -0 0 0 0 0 0 0 0 0 0 0 0
0 0 0 0 0 0 0 0 0 0 0 0 0 0 0 0 0 0 0 0 0 0 0 0 0 0 0 0 0 0 0 0 0 0 -0 -0 -0 -0 -0 -0 0 0 0 0 0 0 0 0 0
0 0 0 0 0 0 0 0 0 0 0 0 0 0 0 0 0 0 0 0 0 0 0 0 0 0 0 0 0 0 0 0 0 0 0 -0 -0 -0 -0 -0 -0 0 0 0 0 0 0 0 0
0 0 0 0 0 0 0 0 -0 0 0 0 0 0 0 0 0 0 0 0 0 0 0 0 0 0 0 0 0 0 0 0 0 0 0 -0 -0 -0 -0 -0 -0 0 0 0 0 0 0 0 0
0 0 0 0 0 0 0 0 0 0 0 0 0 0 0 0 0 0 0 0 0 0 0 0 0 0 0 0 0 0 0 0 0 0 0 0 -0 -0 -0 -0 -0 -0 0 0 0 0 0 0 0
0 0 0 0 0 0 0 0 0 0 0 0 0 0 0 0 0 0 0 0 0 0 0 0 0 0 0 0 0 0 0 0 0 0 0 0 0 -0 -0 -0 -0 -1 -0 0 0 0 0 0 0
0 0 0 0 0 0 0 0 0 0 0 0 0 0 0 0 0 0 0 0 0 0 0 0 0 0 0 0 0 0 0 0 0 0 0 0 0 0 0 -0 -0 -0 -0 -0 0 0 0 0 0
0 0 0 0 0 0 0 0 0 0 0 0 0 0 0 0 0 0 0 0 0 0 0 0 0 0 0 0 0 0 0 0 0 0 0 0 0 0 0 -0 -0 -0 -0 -0 0 0 0 0 0
0 0 0 0 0 0 0 0 0 0 0 0 0 0 0 0 0 0 0 0 0 0 0 0 0 0 0 0 0 0 0 0 0 0 0 0 0 0 -0 0 -0 -0 -0 -0 -0 0 0 0 0
Wind_Speed_500mb
23 19 16 16 5 6 3 11 8 8 12 26 12 8 7 48 30 9 16 28 26 5 31 18 25 23 24 24 22 24 26 25 24 22 20 17 15 13 15 20 28 25 29 27 15 14 26 24 21
21 19 10 13 5 7 11 14 17 16 12 13 20 27 19 16 37 21 47 37 25 3 26 24 24 24 25 26 26 26 27 23 25 23 19 18 18 17 15 20 32 30 29 36 14 11 24 27 26
20 19 11 7 6 11 11 23 26 27 3 10 16 19 13 27 33 23 39 32 23 2 21 27 16 26 26 28 29 30 29 26 28 27 23 20 21 20 18 24 21 23 32 38 19 14 20 26 30
19 6 11 5 9 22 21 24 27 24 24 30 23 12 29 38 26 40 33 36 26 7 13 27 20 23 27 30 32 32 31 31 30 32 29 25 22 21 20 23 24 27 26 23 23 20 27 27 27
12 12 6 7 10 10 28 26 25 18 34 40 35 28 23 33 24 31 44 33 29 18 17 27 31 25 29 32 34 35 36 35 37 37 33 27 22 22 22 23 25 29 28 28 26 27 31 29 27
9 5 6 9 7 17 23 33 17 26 31 35 24 36 16 23 40 52 37 44 28 18 19 27 32 33 36 35 36 36 38 39 41 42 36 34 26 23 24 24 27 31 29 32 30 30 32 31 28
7 8 11 15 17 7 11 27 25 20 28 23 31 16 14 45 53 56 43 26 41 37 22 27 37 39 38 41 41 39 39 42 45 45 41 41 33 28 26 26 28 29 32 32 34 34 30 32 30
5 8 14 14 8 10 13 23 23 27 14 35 28 15 20 61 64 62 47 32 20 32 34 41 35 43 41 40 46 45 43 43 48 51 50 50 39 36 32 29 31 32 32 33 33 34 32 34 34
2 4 9 11 12 10 36 18 24 27 22 33 31 36 45 54 58 58 51 37 28 28 25 31 40 42 45 46 46 44 51 48 52 54 56 58 47 43 40 37 35 37 37 35 38 37 35 37 37
6 5 10 16 22 11 26 26 27 16 25 25 45 47 53 55 56 51 51 50 46 39 33 32 43 39 49 48 51 52 47 52 59 60 59 67 58 50 48 44 41 41 42 41 38 40 39 41 40
16 9 12 19 19 17 23 25 22 23 11 25 36 42 45 45 47 49 48 47 46 45 44 34 34 43 44 48 51 59 60 56 64 68 65 67 67 62 58 51 48 46 46 47 47 45 47 46 42
11 17 20 11 15 11 16 20 17 12 12 24 27 29 32 41 46 48 47 45 46 47 47 46 43 40 48 51 50 56 64 66 63 75 73 75 79 70 61 63 58 54 51 52 53 53 51 49 46
15 10 18 10 17 5 24 22 8 8 14 19 22 22 27 31 37 41 44 46 44 42 40 38 40 37 41 43 51 55 59 74 65 64 79 79 84 78 71 69 67 63 56 54 53 55 55 51 49
9 16 10 10 20 6 19 16 20 4 17 21 21 20 25 28 32 35 41 47 52 51 47 41 50 48 39 37 44 47 60 68 64 70 71 81 83 85 77 81 75 68 62 56 55 51 55 52 48
4 2 8 10 14 8 28 10 16 2 12 19 19 17 22 26 32 34 36 39 45 53 58 53 38 53 52 47 48 57 60 56 89 75 68 78 80 87 88 84 83 77 70 64 58 55 50 53 54
3 5 5 6 15 8 16 3 12 2 11 20 24 19 21 27 30 32 35 37 40 47 57 62 61 57 57 58 58 55 61 68 66 76 93 81 89 87 91 92 92 91 80 72 67 62 57 55 55
7 5 11 7 7 5 10 15 17 16 9 19 23 23 26 29 32 30 34 40 44 49 56 64 69 70 71 67 65 63 62 61 48 22 38 59 87 93 100 103 97 93 91 84 79 70 68 62 61
2 5 9 12 3 7 17 37 36 35 17 19 21 20 21 26 32 34 36 40 47 52 56 62 72 70 73 80 73 75 70 63 65 52 53 31 36 72 95 102 101 97 99 97 91 80 74 68 62
8 9 17 10 11 11 12 27 25 29 22 22 15 21 23 27 31 33 35 39 47 53 57 65 67 69 68 77 81 80 78 79 76 86 94 78 67 47 44 105 108 99 103 98 98 90 83 73 63
4 14 13 17 7 13 17 40 36 29 25 20 16 23 25 28 32 37 38 39 44 54 60 67 73 75 77 70 74 83 81 78 78 88 100 116 102 93 51 32 28 98 104 105 104 100 93 84 76
2 5 10 12 21 22 18 16 5 11 30 15 22 27 21 26 33 39 44 48 47 54 60 65 72 79 78 78 73 76 84 84 81 75 90 97 109 108 97 84 61 57 109 106 107 109 99 97 85
3 10 12 19 14 8 7 10 8 14 15 16 30 19 20 24 34 40 47 49 57 63 60 67 74 77 81 76 70 65 73 86 84 84 81 88 88 100 107 101 72 74 42 116 112 111 108 98 98
6 11 11 9 11 14 8 1 13 13 12 17 23 7 15 23 30 44 47 52 65 59 66 69 69 78 70 73 71 69 72 75 84 82 87 84 77 82 92 109 83 86 75 73 118 113 118 110 102
14 12 11 6 5 3 6 2 12 10 11 5 8 9 15 28 39 50 45 57 60 65 69 67 71 73 78 71 71 72 70 72 74 78 81 91 84 72 64 92 105 100 72 47 112 126 120 119 102
8 6 5 8 4 9 12 5 21 14 8 7 5 13 29 36 41 46 57 63 65 69 69 69 79 82 76 75 71 66 68 70 72 79 80 81 78 77 60 57 87 96 84 90 103 110 128 123 116
7 5 3 8 6 7 11 12 12 8 4 21 20 22 29 35 54 55 57 61 71 72 70 75 76 73 73 79 70 68 68 72 72 72 78 79 76 74 74 54 54 76 83 87 102 56 130 116 112
2 3 1 3 3 4 9 14 19 5 8 7 13 10 35 43 48 54 58 62 66 70 77 71 71 81 96 68 66 77 84 72 70 71 77 76 75 76 80 62 56 63 67 82 95 58 98 119 112
4 3 2 2 6 11 11 11 19 11 15 9 7 28 40 43 47 53 60 63 68 66 68 74 90 94 68 68 67 80 76 73 70 71 74 72 76 70 71 64 63 70 62 76 71 64 55 106 110
4 4 3 3 4 6 9 12 8 4 4 6 12 36 42 48 50 57 61 64 64 66 76 79 87 68 70 69 75 76 75 71 62 63 64 62 68 69 72 67 72 75 68 70 72 76 53 83 111
5 4 11 7 9 7 2 19 13 1 3 13 31 38 47 43 53 57 61 68 69 83 81 87 74 69 60 75 78 60 64 61 56 57 59 67 68 69 71 70 64 79 66 61 76 80 66 55 120
Wind_Direction_500mb
358 357 356 310 255 217 216 91 26 9 37 351 37 350 324 41 1 63 11 3 315 278 277 272 224 217 216 215 223 226 226 233 234 234 234 230 228 212 205 203 207 194 187 182 172 187 194 188 183
359 1 331 278 259 250 65 58 49 19 73 346 335 356 351 68 32 38 3 351 330 191 265 268 235 224 224 227 228 234 237 238 239 239 235 228 232 233 229 210 211 219 197 201 169 187 191 192 191
343 353 300 322 295 32 97 44 26 348 233 358 357 313 40 350 33 10 356 355 352 261 258 281 255 225 230 231 234 236 243 231 244 252 247 257 244 241 240 231 222 207 199 202 179 182 182 189 194
350 255 240 250 318 55 53 39 4 337 356 25 23 74 78 47 34 0 9 0 351 305 244 274 259 244 230 234 237 238 239 239 240 241 252 259 251 250 250 235 230 215 197 188 183 197 184 188 196
327 271 259 267 288 78 76 37 357 12 357 26 16 357 91 31 21 30 13 7 354 332 274 264 270 255 246 235 235 239 243 240 235 240 250 247 253 266 266 252 235 216 206 190 192 203 194 196 197
272 258 281 264 334 108 64 16 12 16 345 37 10 338 76 354 349 1 15 353 342 319 302 269 274 269 260 239 238 241 246 239 234 237 246 245 246 260 268 264 243 227 221 212 203 208 200 202 204
250 278 269 313 303 22 54 358 36 357 343 9 345 325 301 336 333 339 350 359 342 336 294 293 277 275 274 253 243 242 241 238 233 233 244 241 248 254 256 261 249 230 230 221 219 216 208 210 210
318 245 277 274 310 84 47 2 9 9 333 324 346 359 347 336 323 323 332 341 332 351 337 310 294 284 274 268 256 248 245 235 230 233 238 240 245 252 250 250 250 235 229 223 224 222 218 219 218
314 266 247 30 10 30 14 0 350 338 318 337 8 4 339 324 326 326 326 324 323 312 326 331 319 291 278 272 268 262 249 239 229 231 240 239 243 244 248 248 249 248 244 234 227 229 225 225 223
349 231 60 31 35 6 343 352 357 350 332 3 352 337 336 345 347 344 338 333 326 312 301 322 320 300 295 261 262 260 259 248 233 233 234 237 243 250 250 248 246 246 244 242 232 237 233 233 230
18 43 120 42 28 2 2 360 340 354 16 11 344 341 345 349 354 350 345 343 339 330 319 308 317 303 290 291 261 252 252 255 245 237 236 234 244 247 251 249 246 245 245 243 240 242 239 237 236
111 47 31 39 18 18 356 319 324 351 10 338 342 341 347 353 356 358 354 347 341 339 337 328 314 310 310 291 281 270 244 255 252 246 237 234 239 241 236 244 248 249 250 249 246 245 246 243 242
61 91 70 48 31 355 347 325 328 323 351 345 339 349 357 359 360 358 356 358 353 351 350 337 332 310 308 311 304 282 272 238 250 252 245 241 239 240 234 236 245 249 250 251 247 247 247 248 243
57 70 62 33 22 14 352 303 304 77 349 345 344 346 350 353 356 355 358 356 356 356 352 332 331 319 301 304 293 286 281 270 238 246 249 244 245 241 236 235 238 244 243 253 249 246 245 248 247
124 278 196 83 355 40 335 267 215 345 340 333 338 334 339 344 344 346 350 353 348 346 347 358 339 323 316 308 300 293 279 287 251 242 236 240 244 244 239 235 234 238 237 247 245 246 242 242 244
221 343 319 91 8 33 358 168 145 275 329 329 331 328 329 332 335 331 334 337 339 339 340 341 338 340 342 331 308 300 292 287 277 256 241 241 242 244 244 239 237 238 236 239 234 240 237 237 241
45 329 16 326 98 319 42 282 220 330 296 309 316 323 322 322 324 323 321 323 328 333 335 332 332 331 329 329 332 315 293 295 280 251 255 255 243 244 245 245 243 242 235 233 233 236 236 235 235
47 345 340 301 39 8 288 268 266 274 245 266 298 311 320 324 327 325 321 318 323 329 328 327 325 327 325 322 322 320 322 298 285 279 309 288 262 252 251 240 241 235 239 234 231 231 236 234 237
28 318 280 315 24 349 285 288 275 271 229 246 282 311 319 322 327 326 323 325 324 326 328 323 324 325 328 323 321 316 316 314 310 289 287 294 308 308 267 236 235 239 231 234 232 227 229 227 228
301 291 333 301 77 336 284 287 272 243 237 223 260 288 305 317 323 325 324 325 323 321 323 323 321 325 324 322 317 313 315 312 311 309 292 289 293 294 305 296 299 236 226 229 228 228 223 226 224
311 309 6 294 314 266 289 271 216 195 204 202 252 270 289 314 321 322 325 328 327 322 323 318 317 321 321 318 314 312 311 313 314 309 298 298 291 284 296 299 306 297 225 224 221 224 221 217 216
315 47 332 308 328 298 39 284 240 175 196 218 239 243 294 304 315 316 319 322 322 322 319 314 316 321 321 320 312 308 306 307 310 309 305 298 295 299 288 290 301 297 290 224 219 221 219 220 213
228 13 284 307 291 315 199 282 262 123 201 233 214 236 277 308 314 312 317 316 319 320 320 320 317 319 317 313 308 306 303 302 305 307 305 300 298 297 289 286 292 305 302 255 219 220 219 219 216
291 284 204 215 229 328 124 48 277 187 200 153 189 233 305 306 307 312 311 318 318 318 320 317 316 316 316 313 309 307 303 302 300 300 303 305 303 293 296 277 284 291 302 320 222 223 227 213 215
302 318 318 349 5 236 116 323 250 283 205 188 269 289 287 299 315 327 319 322 319 321 317 312 314 317 317 315 309 304 301 297 295 295 298 300 296 290 290 293 287 293 292 302 297 221 215 211 216
6 26 125 260 300 310 142 234 255 177 319 265 257 276 290 314 316 320 321 319 321 319 316 315 315 316 316 315 308 305 304 301 298 293 297 296 292 287 285 293 292 287 292 301 287 273 209 209 214
20 64 60 307 138 349 241 273 286 303 199 175 209 318 318 317 325 326 323 323 320 317 319 316 314 310 317 314 308 302 305 304 297 292 295 294 290 282 281 284 281 274 279 289 284 295 216 208 213
336 51 113 326 357 290 284 277 248 240 248 177 17 321 317 323 329 330 329 324 320 320 318 311 312 319 320 317 313 309 310 305 296 293 294 291 291 287 287 287 276 270 272 277 276 287 284 212 217
156 167 60 83 162 227 301 254 219 282 351 297 292 295 311 329 332 330 326 328 323 320 319 317 323 324 317 319 315 309 309 310 301 299 295 293 291 286 282 282 279 272 276 278 279 273 288 219 212
352 226 173 143 234 242 284 267 266 237 205 252 273 297 323 323 328 330 327 327 326 325 325 325 326 323 321 317 322 319 316 314 306 299 293 295 298 292 282 285 286 280 272 271 274 272 275 251 218
Wind_Speed_850mb
23 19 16 16 5 6 3 11 8 8 12 26 12 8 7 48 30 9 16 28 26 5 31 18 25 23 24 24 22 24 26 25 24 22 20 17 15 13 15 20 28 25 29 27 15 14 26 24 21
21 19 10 13 5 7 11 14 17 16 12 13 20 27 19 16 37 21 47 37 25 3 26 24 24 24 25 26 26 26 27 23 25 23 19 18 18 17 15 20 32 30 29 36 14 11 24 27 26
20 19 11 7 6 11 11 23 26 27 3 10 16 19 13 27 33 23 39 32 23 2 21 27 16 26 26 28 29 30 29 26 28 27 23 20 21 20 18 24 21 23 32 38 19 14 20 26 30
19 6 11 5 9 22 21 24 27 24 24 30 23 12 29 38 26 40 33 36 26 7 13 27 20 23 27 30 32 32 31 31 30 32 29 25 22 21 20 23 24 27 26 23 23 20 27 27 27
12 12 6 7 10 10 28 26 25 18 34 40 35 28 23 33 24 31 44 33 29 18 17 27 31 25 29 32 34 35 36 35 37 37 33 27 22 22 22 23 25 29 28 28 26 27 31 29 27
9 5 6 9 7 17 23 33 17 26 31 35 24 36 16 23 40 52 37 44 28 18 19 27 32 33 36 35 36 36 38 39 41 42 36 34 26 23 24 24 27 31 29 32 30 30 32 31 28
7 8 11 15 17 7 11 27 25 20 28 23 31 16 14 45 53 56 43 26 41 37 22 27 37 39 38 41 41 39 39 42 45 45 41 41 33 28 26 26 28 29 32 32 34 34 30 32 30
5 8 14 14 8 10 13 23 23 27 14 35 28 15 20 61 64 62 47 32 20 32 34 41 35 43 41 40 46 45 43 43 48 51 50 50 39 36 32 29 31 32 32 33 33 34 32 34 34
2 4 9 11 12 10 36 18 24 27 22 33 31 36 45 54 58 58 51 37 28 28 25 31 40 42 45 46 46 44 51 48 52 54 56 58 47 43 40 37 35 37 37 35 38 37 35 37 37
6 5 10 16 22 11 26 26 27 16 25 25 45 47 53 55 56 51 51 50 46 39 33 32 43 39 49 48 51 52 47 52 59 60 59 67 58 50 48 44 41 41 42 41 38 40 39 41 40
16 9 12 19 19 17 23 25 22 23 11 25 36 42 45 45 47 49 48 47 46 45 44 34 34 43 44 48 51 59 60 56 64 68 65 67 67 62 58 51 48 46 46 47 47 45 47 46 42
11 17 20 11 15 11 16 20 17 12 12 24 27 29 32 41 46 48 47 45 46 47 47 46 43 40 48 51 50 56 64 66 63 75 73 75 79 70 61 63 58 54 51 52 53 53 51 49 46
15 10 18 10 17 5 24 22 8 8 14 19 22 22 27 31 37 41 44 46 44 42 40 38 40 37 41 43 51 55 59 74 65 64 79 79 84 78 71 69 67 63 56 54 53 55 55 51 49
9 16 10 10 20 6 19 16 20 4 17 21 21 20 25 28 32 35 41 47 52 51 47 41 50 48 39 37 44 47 60 68 64 70 71 81 83 85 77 81 75 68 62 56 55 51 55 52 48
4 2 8 10 14 8 28 10 16 2 12 19 19 17 22 26 32 34 36 39 45 53 58 53 38 53 52 47 48 57 60 56 89 75 68 78 80 87 88 84 83 77 70 64 58 55 50 53 54
3 5 5 6 15 8 16 3 12 2 11 20 24 19 21 27 30 32 35 37 40 47 57 62 61 57 57 58 58 55 61 68 66 76 93 81 89 87 91 92 92 91 80 72 67 62 57 55 55
7 5 11 7 7 5 10 15 17 16 9 19 23 23 26 29 32 30 34 40 44 49 56 64 69 70 71 67 65 63 62 61 48 22 38 59 87 93 100 103 97 93 91 84 79 70 68 62 61
2 5 9 12 3 7 17 37 36 35 17 19 21 20 21 26 32 34 36 40 47 52 56 62 72 70 73 80 73 75 70 63 65 52 53 31 36 72 95 102 101 97 99 97 91 80 74 68 62
8 9 17 10 11 11 12 27 25 29 22 22 15 21 23 27 31 33 35 39 47 53 57 65 67 69 68 77 81 80 78 79 76 86 94 78 67 47 44 105 108 99 103 98 98 90 83 73 63
4 14 13 17 7 13 17 40 36 29 25 20 16 23 25 28 32 37 38 39 44 54 60 67 73 75 77 70 74 83 81 78 78 88 100 116 102 93 51 32 28 98 104 105 104 100 93 84 76
2 5 10 12 21 22 18 16 5 11 30 15 22 27 21 26 33 39 44 48 47 54 60 65 72 79 78 78 73 76 84 84 81 75 90 97 109 108 97 84 61 57 109 106 107 109 99 97 85
3 10 12 19 14 8 7 10 8 14 15 16 30 19 20 24 34 40 47 49 57 63 60 67 74 77 81 76 70 65 73 86 84 84 81 88 88 100 107 101 72 74 42 116 112 111 108 98 98
6 11 11 9 11 14 8 1 13 13 12 17 23 7 15 23 30 44 47 52 65 59 66 69 69 78 70 73 71 69 72 75 84 82 87 84 77 82 92 109 83 86 75 73 118 113 118 110 102
14 12 11 6 5 3 6 2 12 10 11 5 8 9 15 28 39 50 45 57 60 65 69 67 71 73 78 71 71 72 70 72 74 78 81 91 84 72 64 92 105 100 72 47 112 126 120 119 102
8 6 5 8 4 9 12 5 21 14 8 7 5 13 29 36 41 46 57 63 65 69 69 69 79 82 76 75 71 66 68 70 72 79 80 81 78 77 60 57 87 96 84 90 103 110 128 123 116
7 5 3 8 6 7 11 12 12 8 4 21 20 22 29 35 54 55 57 61 71 72 70 75 76 73 73 79 70 68 68 72 72 72 78 79 76 74 74 54 54 76 83 87 102 56 130 116 112
2 3 1 3 3 4 9 14 19 5 8 7 13 10 35 43 48 54 58 62 66 70 77 71 71 81 96 68 66 77 84 72 70 71 77 76 75 76 80 62 56 63 67 82 95 58 98 119 112
4 3 2 2 6 11 11 11 19 11 15 9 7 28 40 43 47 53 60 63 68 66 68 74 90 94 68 68 67 80 76 73 70 71 74 72 76 70 71 64 63 70 62 76 71 64 55 106 110
4 4 3 3 4 6 9 12 8 4 4 6 12 36 42 48 50 57 61 64 64 66 76 79 87 68 70 69 75 76 75 71 62 63 64 62 68 69 72 67 72 75 68 70 72 76 53 83 111
5 4 11 7 9 7 2 19 13 1 3 13 31 38 47 43 53 57 61 68 69 83 81 87 74 69 60 75 78 60 64 61 56 57 59 67 68 69 71 70 64 79 66 61 76 80 66 55 120
Wind_Direction_850mb
358 357 356 310 255 217 216 91 26 9 37 351 37 350 324 41 1 63 11 3 315 278 277 272 224 217 216 215 223 226 226 233 234 234 234 230 228 212 205 203 207 194 187 182 172 187 194 188 183
359 1 331 278 259 250 65 58 49 19 73 346 335 356 351 68 32 38 3 351 330 191 265 268 235 224 224 227 228 234 237 238 239 239 235 228 232 233 229 210 211 219 197 201 169 187 191 192 191
343 353 300 322 295 32 97 44 26 348 233 358 357 313 40 350 33 10 356 355 352 261 258 281 255 225 230 231 234 236 243 231 244 252 247 257 244 241 240 231 222 207 199 202 179 182 182 189 194
350 255 240 250 318 55 53 39 4 337 356 25 23 74 78 47 34 0 9 0 351 305 244 274 259 244 230 234 237 238 239 239 240 241 252 259 251 250 250 235 230 215 197 188 183 197 184 188 196
327 271 259 267 288 78 76 37 357 12 357 26 16 357 91 31 21 30 13 7 354 332 274 264 270 255 246 235 235 239 243 240 235 240 250 247 253 266 266 252 235 216 206 190 192 203 194 196 197
272 258 281 264 334 108 64 16 12 16 345 37 10 338 76 354 349 1 15 353 342 319 302 269 274 269 260 239 238 241 246 239 234 237 246 245 246 260 268 264 243 227 221 212 203 208 200 202 204
250 278 269 313 303 22 54 358 36 357 343 9 345 325 301 336 333 339 350 359 342 336 294 293 277 275 274 253 243 242 241 238 233 233 244 241 248 254 256 261 249 230 230 221 219 216 208 210 210
318 245 277 274 310 84 47 2 9 9 333 324 346 359 347 336 323 323 332 341 332 351 337 310 294 284 274 268 256 248 245 235 230 233 238 240 245 252 250 250 250 235 229 223 224 222 218 219 218
314 266 247 30 10 30 14 0 350 338 318 337 8 4 339 324 326 326 326 324 323 312 326 331 319 291 278 272 268 262 249 239 229 231 240 239 243 244 248 248 249 248 244 234 227 229 225 225 223
349 231 60 31 35 6 343 352 357 350 332 3 352 337 336 345 347 344 338 333 326 312 301 322 320 300 295 261 262 260 259 248 233 233 234 237 243 250 250 248 246 246 244 242 232 237 233 233 230
18 43 120 42 28 2 2 360 340 354 16 11 344 341 345 349 354 350 345 343 339 330 319 308 317 303 290 291 261 252 252 255 245 237 236 234 244 247 251 249 246 245 245 243 240 242 239 237 236
111 47 31 39 18 18 356 319 324 351 10 338 342 341 347 353 356 358 354 347 341 339 337 328 314 310 310 291 281 270 244 255 252 246 237 234 239 241 236 244 248 249 250 249 246 245 246 243 242
61 91 70 48 31 355 347 325 328 323 351 345 339 349 357 359 360 358 356 358 353 351 350 337 332 310 308 311 304 282 272 238 250 252 245 241 239 240 234 236 245 249 250 251 247 247 247 248 243
57 70 62 33 22 14 352 303 304 77 349 345 344 346 350 353 356 355 358 356 356 356 352 332 331 319 301 304 293 286 281 270 238 246 249 244 245 241 236 235 238 244 243 253 249 246 245 248 247
124 278 196 83 355 40 335 267 215 345 340 333 338 334 339 344 344 346 350 353 348 346 347 358 339 323 316 308 300 293 279 287 251 242 236 240 244 244 239 235 234 238 237 247 245 246 242 242 244
221 343 319 91 8 33 358 168 145 275 329 329 331 328 329 332 335 331 334 337 339 339 340 341 338 340 342 331 308 300 292 287 277 256 241 241 242 244 244 239 237 238 236 239 234 240 237 237 241
45 329 16 326 98 319 42 282 220 330 296 309 316 323 322 322 324 323 321 323 328 333 335 332 332 331 329 329 332 315 293 295 280 251 255 255 243 244 245 245 243 242 235 233 233 236 236 235 235
47 345 340 301 39 8 288 268 266 274 245 266 298 311 320 324 327 325 321 318 323 329 328 327 325 327 325 322 322 320 322 298 285 279 309 288 262 252 251 240 241 235 239 234 231 231 236 234 237
28 318 280 315 24 349 285 288 275 271 229 246 282 311 319 322 327 326 323 325 324 326 328 323 324 325 328 323 321 316 316 314 310 289 287 294 308 308 267 236 235 239 231 234 232 227 229 227 228
301 291 333 301 77 336 284 287 272 243 237 223 260 288 305 317 323 325 324 325 323 321 323 323 321 325 324 322 317 313 315 312 311 309 292 289 293 294 305 296 299 236 226 229 228 228 223 226 224
311 309 6 294 314 266 289 271 216 195 204 202 252 270 289 314 321 322 325 328 327 322 323 318 317 321 321 318 314 312 311 313 314 309 298 298 291 284 296 299 306 297 225 224 221 224 221 217 216
315 47 332 308 328 298 39 284 240 175 196 218 239 243 294 304 315 316 319 322 322 322 319 314 316 321 321 320 312 308 306 307 310 309 305 298 295 299 288 290 301 297 290 224 219 221 219 220 213
228 13 284 307 291 315 199 282 262 123 201 233 214 236 277 308 314 312 317 316 319 320 320 320 317 319 317 313 308 306 303 302 305 307 305 300 298 297 289 286 292 305 302 255 219 220 219 219 216
291 284 204 215 229 328 124 48 277 187 200 153 189 233 305 306 307 312 311 318 318 318 320 317 316 316 316 313 309 307 303 302 300 300 303 305 303 293 296 277 284 291 302 320 222 223 227 213 215
302 318 318 349 5 236 116 323 250 283 205 188 269 289 287 299 315 327 319 322 319 321 317 312 314 317 317 315 309 304 301 297 295 295 298 300 296 290 290 293 287 293 292 302 297 221 215 211 216
6 26 125 260 300 310 142 234 255 177 319 265 257 276 290 314 316 320 321 319 321 319 316 315 315 316 316 315 308 305 304 301 298 293 297 296 292 287 285 293 292 287 292 301 287 273 209 209 214
20 64 60 307 138 349 241 273 286 303 199 175 209 318 318 317 325 326 323 323 320 317 319 316 314 310 317 314 308 302 305 304 297 292 295 294 290 282 281 284 281 274 279 289 284 295 216 208 213
336 51 113 326 357 290 284 277 248 240 248 177 17 321 317 323 329 330 329 324 320 320 318 311 312 319 320 317 313 309 310 305 296 293 294 291 291 287 287 287 276 270 272 277 276 287 284 212 217
156 167 60 83 162 227 301 254 219 282 351 297 292 295 311 329 332 330 326 328 323 320 319 317 323 324 317 319 315 309 309 310 301 299 295 293 291 286 282 282 279 272 276 278 279 273 288 219 212
352 226 173 143 234 242 284 267 266 237 205 252 273 297 323 323 328 330 327 327 326 325 325 325 326 323 321 317 322 319 316 314 306 299 293 295 298 292 282 285 286 280 272 271 274 272 275 251 218